This is the latest recevied weather packets stored in our database for station/object YO6LRV-3. If no packets are shown the sender has not sent any weather packets the latest 10 day(s).
| Time | Temp. | Humidity | Pressure | Rain* | Wind** | Luminosity | Snow |
|---|---|---|---|---|---|---|---|
| 1777548956 | 10.56° C | 49% | 1022.1 hPa | - | - | - | - |
| 1777548056 | 10.56° C | 47% | 1022.1 hPa | - | - | - | - |
| 1777544456 | 10° C | 49% | 1022.1 hPa | - | - | - | - |
| 1777543556 | 10° C | 49% | 1022.2 hPa | - | - | - | - |
| 1777542655 | 10° C | 50% | 1022.4 hPa | - | - | - | - |
| 1777541755 | 10° C | 51% | 1022.3 hPa | - | - | - | - |
| 1777540855 | 9.44° C | 52% | 1022.2 hPa | - | - | - | - |
| 1777539955 | 9.44° C | 52% | 1022.1 hPa | - | - | - | - |
| 1777539055 | 8.89° C | 53% | 1022.1 hPa | - | - | - | - |
| 1777538155 | 8.89° C | 55% | 1022.2 hPa | - | - | - | - |
| 1777537255 | 8.33° C | 56% | 1022.2 hPa | - | - | - | - |
| 1777536354 | 7.78° C | 56% | 1022.2 hPa | - | - | - | - |
| 1777534554 | 7.22° C | 59% | 1022 hPa | - | - | - | - |
| 1777533654 | 6.67° C | 60% | 1021.9 hPa | - | - | - | - |
| 1777532756 | 6.11° C | 60% | 1022 hPa | - | - | - | - |
| 1777531856 | 6.11° C | 61% | 1022 hPa | - | - | - | - |
| 1777530956 | 5.56° C | 63% | 1022 hPa | - | - | - | - |
| 1777530056 | 5.56° C | 63% | 1021.9 hPa | - | - | - | - |
| 1777529156 | 5.56° C | 64% | 1021.8 hPa | - | - | - | - |
| 1777528256 | 5° C | 65% | 1021.7 hPa | - | - | - | - |
| 1777527356 | 5° C | 66% | 1021.6 hPa | - | - | - | - |
| 1777526456 | 5° C | 66% | 1021.4 hPa | - | - | - | - |
| 1777525555 | 4.44° C | 66% | 1021.3 hPa | - | - | - | - |
| 1777524648 | 4.44° C | 64% | 1021.3 hPa | - | - | - | - |
| 1777523755 | 4.44° C | 63% | 1021.3 hPa | - | - | - | - |
* Rain since midnight (hover to see other rain measurements)
** Current wind speed in m/s (hover to see current wind gust speed)